This is the latest recevied weather packets stored in our database for station/object DB0ROB-10. If no packets are shown the sender has not sent any weather packets the latest 10 day(s).
| Time | Temp. | Humidity | Pressure | Rain* | Wind** | Luminosity | Snow |
|---|---|---|---|---|---|---|---|
| 1778212006 | 6.11° C | 85% | 1015.3 hPa | - | - | - | - |
| 1778211105 | 6.11° C | 86% | 1015.4 hPa | - | - | - | - |
| 1778210205 | 6.11° C | 86% | 1015.3 hPa | - | - | - | - |
| 1778209305 | 5.56° C | 88% | 1015.3 hPa | - | - | - | - |
| 1778208405 | 6.11° C | 83% | 1015.3 hPa | - | - | - | - |
| 1778207504 | 6.11° C | 79% | 1015.3 hPa | - | - | - | - |
| 1778206604 | 6.11° C | 80% | 1015.3 hPa | - | - | - | - |
| 1778205704 | 6.67° C | 73% | 1015.3 hPa | - | - | - | - |
| 1778204810 | 6.67° C | 74% | 1015.2 hPa | - | - | - | - |
| 1778203910 | 6.67° C | 75% | 1015.3 hPa | - | - | - | - |
| 1778203010 | 6.67° C | 81% | 1015.3 hPa | - | - | - | - |
| 1778202110 | 6.67° C | 73% | 1015.3 hPa | - | - | - | - |
| 1778201210 | 6.67° C | 77% | 1015.5 hPa | - | - | - | - |
| 1778200310 | 6.67° C | 76% | 1015.5 hPa | - | - | - | - |
| 1778199410 | 6.67° C | 74% | 1015.6 hPa | - | - | - | - |
| 1778198509 | 6.67° C | 68% | 1015.8 hPa | - | - | - | - |
| 1778197609 | 7.22° C | 69% | 1015.9 hPa | - | - | - | - |
| 1778196709 | 7.78° C | 68% | 1015.9 hPa | - | - | - | - |
| 1778195809 | 7.78° C | 66% | 1016.1 hPa | - | - | - | - |
| 1778194908 | 7.22° C | 73% | 1016.3 hPa | - | - | - | - |
| 1778194008 | 7.22° C | 78% | 1016.3 hPa | - | - | - | - |
| 1778193108 | 7.22° C | 81% | 1016.3 hPa | - | - | - | - |
| 1778192207 | 6.67° C | 82% | 1016.3 hPa | - | - | - | - |
| 1778191307 | 7.22° C | 78% | 1016.3 hPa | - | - | - | - |
| 1778190407 | 7.22° C | 80% | 1016.3 hPa | - | - | - | - |
* Rain since midnight (hover to see other rain measurements)
** Current wind speed in m/s (hover to see current wind gust speed)